ITY65U EHAM-LOWI

Flight info

Callsign ITY65U
Flight time 1h 5m
Altitude 35000
Route EDUPO Z739 MISGO DCT ASBON DCT TUSUK DCT ULNOK L607 TEDGO DCT BATUB M738 MADEB MADEB1B
Aircraft B738/M-SDE2E3FGHIRWXY/LB1

Departure

Time 2026-04-17 09:50
Airport Amsterdam Airport Schiphol (EHAM)

Arrival

Time 2026-04-17 10:56
Airport Innsbruck Airport (LOWI)
Time Latitude Longitude Altitude Speed Heading
2026-04-17 09:20 52.30379 4.76402 -2 ft 0 kts 238°
2026-04-17 09:23 52.30379 4.76403 -2 ft 0 kts 238°
2026-04-17 09:39 52.30380 4.76403 -2 ft 0 kts 238°
2026-04-17 09:42 52.30383 4.76414 -2 ft 2 kts 238°
2026-04-17 09:43 52.30391 4.76433 -2 ft 2 kts 237°
2026-04-17 09:43 52.30398 4.76449 -2 ft 1 kts 230°
2026-04-17 09:43 52.30402 4.76458 -2 ft 1 kts 211°
2026-04-17 09:43 52.30407 4.76463 -2 ft 1 kts 164°
2026-04-17 09:44 52.30413 4.76460 -2 ft 1 kts 152°
2026-04-17 09:44 52.30417 4.76455 -2 ft 1 kts 148°
2026-04-17 09:44 52.30420 4.76453 -2 ft 0 kts 147°
2026-04-17 09:46 52.30417 4.76456 -2 ft 3 kts 148°
2026-04-17 09:46 52.30363 4.76509 -2 ft 12 kts 147°
2026-04-17 09:46 52.30342 4.76639 -2 ft 13 kts 72°
2026-04-17 09:46 52.30310 4.76767 -2 ft 13 kts 108°
2026-04-17 09:47 52.30344 4.76907 -2 ft 14 kts 57°
2026-04-17 09:47 52.30400 4.77049 -2 ft 15 kts 58°
2026-04-17 09:47 52.30454 4.77191 -2 ft 15 kts 58°
2026-04-17 09:47 52.30506 4.77330 -2 ft 14 kts 58°
2026-04-17 09:48 52.30555 4.77457 -2 ft 12 kts 58°
2026-04-17 09:48 52.30553 4.77550 -2 ft 8 kts 136°
2026-04-17 09:48 52.30517 4.77587 -2 ft 5 kts 149°
2026-04-17 09:48 52.30487 4.77616 -2 ft 5 kts 149°
2026-04-17 09:49 52.30456 4.77641 -2 ft 5 kts 153°
2026-04-17 09:49 52.30422 4.77650 -2 ft 5 kts 197°
2026-04-17 09:49 52.30406 4.77618 -2 ft 1 kts 238°
2026-04-17 09:49 52.30386 4.77563 -3 ft 29 kts 238°
2026-04-17 09:50 52.30140 4.76923 -4 ft 107 kts 238°
2026-04-17 09:50 52.29597 4.75515 106 ft 177 kts 238°
2026-04-17 09:50 52.28912 4.73675 1017 ft 189 kts 236°
2026-04-17 09:50 52.28240 4.71951 2559 ft 176 kts 236°
2026-04-17 09:51 52.27553 4.70206 3301 ft 191 kts 236°
2026-04-17 09:51 52.26638 4.68475 3523 ft 211 kts 213°
2026-04-17 09:51 52.25228 4.67734 4031 ft 220 kts 181°
2026-04-17 09:51 52.23754 4.68441 4767 ft 228 kts 147°
2026-04-17 09:52 52.22745 4.70454 5566 ft 234 kts 121°
2026-04-17 09:52 52.21994 4.72847 6326 ft 238 kts 120°
2026-04-17 09:52 52.21227 4.75261 7095 ft 241 kts 121°
2026-04-17 09:52 52.20436 4.77716 7731 ft 251 kts 122°
2026-04-17 09:53 52.19539 4.80283 8019 ft 274 kts 123°
2026-04-17 09:53 52.18558 4.83018 8668 ft 283 kts 124°
2026-04-17 09:53 52.17645 4.85896 9432 ft 292 kts 110°
2026-04-17 09:53 52.17539 4.89242 10208 ft 304 kts 81°
2026-04-17 09:54 52.18103 4.92627 10717 ft 320 kts 74°
2026-04-17 09:54 52.18800 4.96226 10901 ft 345 kts 73°
2026-04-17 09:54 52.19557 5.00047 11330 ft 360 kts 73°
2026-04-17 09:54 52.20326 5.03976 12023 ft 365 kts 73°
2026-04-17 09:55 52.21089 5.07947 12821 ft 369 kts 74°
2026-04-17 09:55 52.21851 5.11972 13603 ft 374 kts 74°
2026-04-17 09:55 52.22358 5.14678 14112 ft 377 kts 74°
2026-04-17 09:55 52.23376 5.20152 15060 ft 383 kts 76°
2026-04-17 09:56 52.23687 5.24449 15775 ft 384 kts 98°
2026-04-17 09:56 52.23041 5.28636 16545 ft 381 kts 117°
2026-04-17 09:56 52.22183 5.31125 17038 ft 379 kts 128°
2026-04-17 09:56 52.20654 5.34651 17766 ft 383 kts 130°
2026-04-17 09:57 52.19068 5.38180 18451 ft 388 kts 130°
2026-04-17 09:57 52.17464 5.41758 19061 ft 393 kts 129°
2026-04-17 09:57 52.15851 5.45397 19661 ft 398 kts 129°
2026-04-17 09:57 52.14233 5.49091 20256 ft 403 kts 128°
2026-04-17 09:58 52.12598 5.52835 20862 ft 407 kts 128°
2026-04-17 09:58 52.10947 5.56614 21448 ft 411 kts 128°
2026-04-17 09:58 52.09279 5.60425 22020 ft 416 kts 128°
2026-04-17 09:58 52.07610 5.64226 22602 ft 420 kts 128°
2026-04-17 09:59 52.05892 5.68105 23171 ft 424 kts 130°
2026-04-17 09:59 52.04019 5.71822 23726 ft 427 kts 134°
2026-04-17 09:59 52.02033 5.75434 24174 ft 430 kts 135°
2026-04-17 09:59 52.00028 5.79076 24631 ft 434 kts 134°
2026-04-17 10:00 51.98025 5.82780 25091 ft 438 kts 134°
2026-04-17 10:00 51.96017 5.86531 25532 ft 441 kts 134°
2026-04-17 10:00 51.93992 5.90309 25929 ft 446 kts 134°
2026-04-17 10:00 51.91944 5.94123 26341 ft 450 kts 134°
2026-04-17 10:01 51.89877 5.97961 26774 ft 453 kts 134°
2026-04-17 10:01 51.87819 6.01761 27169 ft 456 kts 134°
2026-04-17 10:01 51.85714 6.05634 27567 ft 460 kts 134°
2026-04-17 10:01 51.83591 6.09534 27958 ft 463 kts 134°
2026-04-17 10:02 51.81450 6.13463 28359 ft 466 kts 134°
2026-04-17 10:02 51.79299 6.17408 28738 ft 469 kts 134°
2026-04-17 10:02 51.77136 6.21372 29107 ft 472 kts 134°
2026-04-17 10:02 51.74954 6.25364 29467 ft 475 kts 133°
2026-04-17 10:03 51.72758 6.29377 29820 ft 478 kts 134°
2026-04-17 10:03 51.70574 6.33363 30151 ft 481 kts 133°
2026-04-17 10:03 51.68347 6.37420 30443 ft 484 kts 133°
2026-04-17 10:03 51.66101 6.41503 30749 ft 486 kts 133°
2026-04-17 10:04 51.63850 6.45588 31097 ft 486 kts 133°
2026-04-17 10:04 51.61607 6.49654 31499 ft 485 kts 133°
2026-04-17 10:04 51.59366 6.53710 31898 ft 484 kts 133°
2026-04-17 10:04 51.57125 6.57760 32269 ft 484 kts 133°
2026-04-17 10:05 51.54883 6.61803 32622 ft 484 kts 133°
2026-04-17 10:05 51.52673 6.65784 32988 ft 484 kts 134°
2026-04-17 10:05 51.50422 6.69830 33378 ft 483 kts 134°
2026-04-17 10:05 51.48182 6.73853 33768 ft 483 kts 133°
2026-04-17 10:06 51.45937 6.77879 34070 ft 484 kts 134°
2026-04-17 10:06 51.43686 6.81908 34364 ft 485 kts 134°
2026-04-17 10:06 51.41411 6.85889 34690 ft 483 kts 137°
2026-04-17 10:06 51.38890 6.89432 35008 ft 479 kts 146°
2026-04-17 10:07 51.36104 6.92319 35214 ft 477 kts 154°
2026-04-17 10:07 51.33165 6.94845 35207 ft 481 kts 155°
2026-04-17 10:07 51.27274 6.99725 35229 ft 477 kts 156°
2026-04-17 10:08 51.21428 7.04589 35233 ft 472 kts 155°
2026-04-17 10:08 51.15604 7.09493 35231 ft 474 kts 155°
2026-04-17 10:09 51.09773 7.14422 35221 ft 474 kts 155°
2026-04-17 10:09 51.03932 7.19352 35233 ft 475 kts 155°
2026-04-17 10:10 50.98114 7.24248 35236 ft 475 kts 155°
2026-04-17 10:11 50.89331 7.31608 35243 ft 476 kts 155°
2026-04-17 10:11 50.83453 7.36515 35234 ft 477 kts 155°
2026-04-17 10:12 50.77616 7.41375 35229 ft 477 kts 155°
2026-04-17 10:12 50.71725 7.46265 35230 ft 477 kts 155°
2026-04-17 10:13 50.65838 7.51138 35215 ft 477 kts 155°
2026-04-17 10:13 50.59984 7.55970 35213 ft 477 kts 155°
2026-04-17 10:14 50.54098 7.60815 35216 ft 477 kts 155°
2026-04-17 10:14 50.48202 7.65654 35219 ft 477 kts 155°
2026-04-17 10:15 50.42319 7.70469 35221 ft 477 kts 155°
2026-04-17 10:15 50.36473 7.75239 35208 ft 476 kts 154°
2026-04-17 10:16 50.30590 7.80028 35209 ft 476 kts 154°
2026-04-17 10:16 50.24713 7.84797 35224 ft 476 kts 154°
2026-04-17 10:17 50.18826 7.89561 35223 ft 476 kts 154°
2026-04-17 10:17 50.12967 7.94289 35218 ft 476 kts 154°
2026-04-17 10:18 50.07094 7.99016 35230 ft 475 kts 154°
2026-04-17 10:18 50.01210 8.03738 35231 ft 475 kts 154°
2026-04-17 10:19 49.95346 8.08432 35242 ft 474 kts 154°
2026-04-17 10:19 49.89477 8.13116 35220 ft 474 kts 155°
2026-04-17 10:20 49.83648 8.17756 35226 ft 474 kts 155°
2026-04-17 10:20 49.77780 8.22414 35222 ft 474 kts 155°
2026-04-17 10:21 49.71909 8.27061 35213 ft 474 kts 155°
2026-04-17 10:21 49.66036 8.31698 35213 ft 474 kts 155°
2026-04-17 10:22 49.60166 8.36320 35215 ft 473 kts 155°
2026-04-17 10:22 49.54326 8.40904 35216 ft 474 kts 155°
2026-04-17 10:23 49.48452 8.45504 35240 ft 474 kts 155°
2026-04-17 10:23 49.42562 8.50104 35225 ft 474 kts 155°
2026-04-17 10:24 49.36674 8.54690 35234 ft 474 kts 155°
2026-04-17 10:24 49.30831 8.59228 35233 ft 473 kts 155°
2026-04-17 10:25 49.24953 8.63781 35225 ft 473 kts 155°
2026-04-17 10:25 49.19064 8.68331 35201 ft 473 kts 155°
2026-04-17 10:26 49.13176 8.72868 35210 ft 473 kts 155°
2026-04-17 10:26 49.07321 8.77367 35209 ft 473 kts 155°
2026-04-17 10:27 49.01436 8.81877 35221 ft 473 kts 155°
2026-04-17 10:27 48.95550 8.86376 35195 ft 474 kts 155°
2026-04-17 10:28 48.89657 8.90869 35211 ft 474 kts 155°
2026-04-17 10:28 48.83757 8.95354 35212 ft 474 kts 155°
2026-04-17 10:29 48.77880 8.99811 35210 ft 475 kts 155°
2026-04-17 10:29 48.71966 9.04284 35197 ft 475 kts 156°
2026-04-17 10:30 48.66046 9.08750 35209 ft 474 kts 156°
2026-04-17 10:30 48.60133 9.13198 35207 ft 474 kts 156°
2026-04-17 10:30 48.57162 9.15428 35047 ft 479 kts 155°
2026-04-17 10:31 48.54172 9.17669 34800 ft 478 kts 155°
2026-04-17 10:31 48.51194 9.19900 34554 ft 477 kts 156°
2026-04-17 10:31 48.48259 9.22096 34323 ft 477 kts 156°
2026-04-17 10:31 48.45280 9.24321 34076 ft 478 kts 156°
2026-04-17 10:32 48.42298 9.26545 33804 ft 479 kts 156°
2026-04-17 10:32 48.39302 9.28777 33530 ft 479 kts 156°
2026-04-17 10:32 48.36307 9.31005 33264 ft 479 kts 155°
2026-04-17 10:32 48.33312 9.33230 33008 ft 479 kts 155°
2026-04-17 10:33 48.30317 9.35453 32740 ft 479 kts 155°
2026-04-17 10:33 48.27359 9.37645 32481 ft 479 kts 155°
2026-04-17 10:33 48.24374 9.39855 32208 ft 479 kts 155°
2026-04-17 10:33 48.21384 9.42065 31953 ft 479 kts 155°
2026-04-17 10:34 48.18399 9.44268 31719 ft 478 kts 155°
2026-04-17 10:34 48.15421 9.46464 31241 ft 473 kts 155°
2026-04-17 10:34 48.12467 9.48640 30773 ft 473 kts 155°
2026-04-17 10:34 48.09511 9.50814 30251 ft 475 kts 155°
2026-04-17 10:35 48.06529 9.53004 29643 ft 475 kts 155°
2026-04-17 10:35 48.03595 9.55156 29084 ft 475 kts 155°
2026-04-17 10:35 48.00688 9.57512 28544 ft 476 kts 148°
2026-04-17 10:35 47.97977 9.60346 28028 ft 475 kts 144°
2026-04-17 10:36 47.95315 9.63283 27441 ft 476 kts 144°
2026-04-17 10:36 47.92665 9.66234 26891 ft 475 kts 144°
2026-04-17 10:36 47.89994 9.69191 26341 ft 475 kts 144°
2026-04-17 10:36 47.87335 9.72105 25790 ft 474 kts 144°
2026-04-17 10:37 47.84672 9.74993 25245 ft 474 kts 144°
2026-04-17 10:37 47.82002 9.77868 24698 ft 473 kts 144°
2026-04-17 10:37 47.79344 9.80720 24151 ft 466 kts 144°
2026-04-17 10:37 47.76739 9.83509 23569 ft 455 kts 144°
2026-04-17 10:38 47.74228 9.86194 22965 ft 446 kts 144°
2026-04-17 10:38 47.71732 9.88861 22435 ft 437 kts 144°
2026-04-17 10:38 47.69284 9.91473 21898 ft 433 kts 144°
2026-04-17 10:38 47.66833 9.94087 21373 ft 430 kts 144°
2026-04-17 10:39 47.64403 9.96676 20859 ft 430 kts 144°
2026-04-17 10:39 47.61966 9.99269 20346 ft 431 kts 144°
2026-04-17 10:39 47.59541 10.01847 19782 ft 423 kts 144°
2026-04-17 10:39 47.57179 10.04355 19115 ft 411 kts 144°
2026-04-17 10:40 47.54889 10.06784 18470 ft 399 kts 144°
2026-04-17 10:40 47.52680 10.09125 17775 ft 391 kts 144°
2026-04-17 10:40 47.50470 10.11464 17090 ft 389 kts 144°
2026-04-17 10:40 47.48277 10.13783 16551 ft 384 kts 144°
2026-04-17 10:41 47.46130 10.16051 16317 ft 375 kts 144°
2026-04-17 10:41 47.44020 10.18271 16062 ft 370 kts 145°
2026-04-17 10:41 47.41880 10.20323 15808 ft 364 kts 148°
2026-04-17 10:41 47.39740 10.22249 15553 ft 356 kts 149°
2026-04-17 10:42 47.37654 10.24122 15305 ft 345 kts 149°
2026-04-17 10:42 47.35643 10.25943 15051 ft 335 kts 148°
2026-04-17 10:42 47.33720 10.27828 14796 ft 330 kts 138°
2026-04-17 10:42 47.32363 10.30446 14534 ft 321 kts 115°
2026-04-17 10:43 47.31692 10.33528 14315 ft 305 kts 101°
2026-04-17 10:43 47.31280 10.36552 14073 ft 296 kts 99°
2026-04-17 10:43 47.30911 10.39484 13796 ft 286 kts 99°
2026-04-17 10:43 47.30554 10.42298 13520 ft 279 kts 99°
2026-04-17 10:44 47.30194 10.45064 13286 ft 272 kts 99°
2026-04-17 10:44 47.29834 10.47757 13224 ft 261 kts 99°
2026-04-17 10:44 47.29482 10.50355 13204 ft 256 kts 99°
2026-04-17 10:44 47.29136 10.52887 13239 ft 247 kts 99°
2026-04-17 10:45 47.28800 10.55309 13203 ft 235 kts 100°
2026-04-17 10:45 47.28543 10.57641 13203 ft 227 kts 88°
2026-04-17 10:45 47.28599 10.59173 13218 ft 225 kts 81°
2026-04-17 10:45 47.28791 10.62234 13213 ft 227 kts 83°
2026-04-17 10:46 47.28929 10.64598 12859 ft 233 kts 83°
2026-04-17 10:46 47.29020 10.66177 12642 ft 236 kts 83°
2026-04-17 10:46 47.29148 10.68575 12285 ft 232 kts 83°
2026-04-17 10:46 47.29272 10.70953 11933 ft 233 kts 84°
2026-04-17 10:47 47.29395 10.73336 11548 ft 232 kts 84°
2026-04-17 10:47 47.29514 10.75704 11197 ft 233 kts 85°
2026-04-17 10:47 47.29635 10.78091 10822 ft 232 kts 85°
2026-04-17 10:47 47.29756 10.80474 10314 ft 237 kts 85°
2026-04-17 10:48 47.29878 10.82908 9862 ft 235 kts 85°
2026-04-17 10:48 47.29996 10.85280 9513 ft 231 kts 85°
2026-04-17 10:48 47.30111 10.87599 9129 ft 227 kts 84°
2026-04-17 10:48 47.30222 10.89874 8773 ft 216 kts 85°
2026-04-17 10:49 47.30329 10.92036 8480 ft 207 kts 85°
2026-04-17 10:49 47.30431 10.94126 8156 ft 198 kts 85°
2026-04-17 10:49 47.30529 10.96124 7844 ft 190 kts 85°
2026-04-17 10:49 47.30622 10.98043 7577 ft 186 kts 85°
2026-04-17 10:50 47.30713 10.99928 7286 ft 182 kts 85°
2026-04-17 10:50 47.30801 11.01757 7001 ft 175 kts 85°
2026-04-17 10:50 47.30883 11.03477 6751 ft 167 kts 85°
2026-04-17 10:50 47.30964 11.05159 6499 ft 162 kts 86°
2026-04-17 10:51 47.30941 11.06821 6295 ft 162 kts 97°
2026-04-17 10:51 47.30654 11.08453 6004 ft 165 kts 111°
2026-04-17 10:51 47.30172 11.09982 5728 ft 164 kts 116°
2026-04-17 10:51 47.29671 11.11466 5465 ft 160 kts 115°
2026-04-17 10:52 47.29179 11.12935 5231 ft 160 kts 114°
2026-04-17 10:52 47.28687 11.14409 4996 ft 161 kts 115°
2026-04-17 10:52 47.28192 11.15894 4731 ft 161 kts 115°
2026-04-17 10:52 47.27705 11.17359 4516 ft 159 kts 115°
2026-04-17 10:53 47.27227 11.18807 4263 ft 154 kts 115°
2026-04-17 10:53 47.26760 11.20219 4028 ft 150 kts 115°
2026-04-17 10:53 47.26313 11.21571 3808 ft 145 kts 115°
2026-04-17 10:53 47.25876 11.22892 3609 ft 142 kts 115°
2026-04-17 10:54 47.25454 11.24189 3401 ft 144 kts 114°
2026-04-17 10:54 47.25199 11.25596 3185 ft 142 kts 95°
2026-04-17 10:54 47.25248 11.27057 2969 ft 143 kts 83°
2026-04-17 10:54 47.25387 11.28513 2730 ft 143 kts 81°
2026-04-17 10:55 47.25540 11.29947 2501 ft 141 kts 81°
2026-04-17 10:55 47.25702 11.31375 2242 ft 141 kts 83°
2026-04-17 10:55 47.25848 11.32795 2013 ft 138 kts 81°
2026-04-17 10:55 47.25993 11.34129 1908 ft 122 kts 82°
2026-04-17 10:56 47.26096 11.35100 1893 ft 44 kts 81°
2026-04-17 10:56 47.26095 11.35233 1893 ft 3 kts 127°
2026-04-17 10:56 47.26056 11.35257 1901 ft 7 kts 168°
2026-04-17 10:56 47.26012 11.35270 1899 ft 7 kts 170°
2026-04-17 10:57 47.26008 11.35271 1893 ft 0 kts 170°
2026-04-17 10:57 47.26002 11.35273 1896 ft 3 kts 170°
2026-04-17 10:57 47.25961 11.35282 1895 ft 9 kts 173°
2026-04-17 10:57 47.25902 11.35241 1898 ft 9 kts 258°
2026-04-17 10:58 47.25889 11.35153 1898 ft 11 kts 259°
2026-04-17 10:58 47.25874 11.35051 1893 ft 7 kts 224°
2026-04-17 10:58 47.25847 11.35041 1897 ft 4 kts 187°
2026-04-17 10:58 47.25820 11.35050 1898 ft 0 kts 170°